This is the latest recevied weather packets stored in our database for station/object KM4CBK. If no packets are shown the sender has not sent any weather packets the latest 10 day(s).
| Time | Temp. | Humidity | Pressure | Rain* | Wind** | Luminosity | Snow |
|---|---|---|---|---|---|---|---|
| 1777735746 | 17.22° C | 73% | 1013.8 hPa | 0 mm | - | 664 W/m² | - |
| 1777735444 | 17.22° C | 73% | 1013.8 hPa | 0 mm | - | 663 W/m² | - |
| 1777735141 | 17.78° C | 72% | 1013.6 hPa | 0 mm | - | 620 W/m² | - |
| 1777734837 | 17.22° C | 72% | 1013.5 hPa | 0 mm | - | 631 W/m² | - |
| 1777734535 | 16.67° C | 77% | 1013.9 hPa | 0 mm | - | 645 W/m² | - |
| 1777734231 | 16.67° C | 76% | 1013.6 hPa | 0 mm | - | 548 W/m² | - |
| 1777733928 | 16.11° C | 75% | 1013.7 hPa | 0 mm | - | 586 W/m² | - |
| 1777733624 | 16.11° C | 79% | 1013.2 hPa | 0 mm | - | 465 W/m² | - |
| 1777733321 | 16.11° C | 82% | 1013.5 hPa | 0 mm | - | 306 W/m² | - |
| 1777733018 | 15.56° C | 80% | 1013.3 hPa | 0 mm | - | 231 W/m² | - |
| 1777732714 | 15.56° C | 84% | 1013.3 hPa | 0 mm | - | 292 W/m² | - |
| 1777732411 | 15.56° C | 84% | 1013.2 hPa | 0 mm | - | 148 W/m² | - |
| 1777732109 | 15° C | 85% | 1013.1 hPa | 0 mm | - | 442 W/m² | - |
| 1777731806 | 15° C | 88% | 1013.2 hPa | 0 mm | - | 76 W/m² | - |
| 1777731502 | 15° C | 90% | 1013.1 hPa | 0 mm | - | 503 W/m² | - |
| 1777731201 | 14.44° C | 91% | 1012.9 hPa | 0 mm | - | 505 W/m² | - |
| 1777730898 | 13.89° C | 92% | 1013.2 hPa | 0 mm | - | 464 W/m² | - |
| 1777730595 | 13.33° C | 98% | 1012.9 hPa | 0 mm | - | 308 W/m² | - |
| 1777730292 | 12.78° C | 98% | 1012.8 hPa | 0 mm | - | 253 W/m² | - |
| 1777729989 | 13.33° C | 99% | 1013.1 hPa | 0 mm | - | 279 W/m² | - |
| 1777729684 | 12.78° C | 99% | 1013.1 hPa | 0 mm | - | 138 W/m² | - |
| 1777729382 | 12.22° C | 99% | 1013 hPa | 0 mm | - | 95 W/m² | - |
| 1777729078 | 11.67° C | 99% | 1013 hPa | 0 mm | - | 117 W/m² | - |
| 1777728775 | 11.67° C | 99% | 1013 hPa | 0 mm | - | 117 W/m² | - |
| 1777728471 | 11.67° C | 99% | 1012.9 hPa | 0 mm | - | 114 W/m² | - |
* Rain latest hour (hover to see other rain measurements)
** Current wind speed in m/s (hover to see current wind gust speed)